Showing default

KORSAT-1, 59452

Orbit data source: Space-Track

KORSAT-1, 59452 is a payload satellite owned by DAPA (KR) in LEO that was launched on Sun, 07 Apr 2024 UTC via an FALCON 9 launch vehicle from the Air Force Eastern Test Range (AFETR). Payload-class satellites include a variety of spacecraft equipped with specific instruments for various scientific and technological missions. These include communications satellites like Starlink; space stations such as the ISS; scientific satellites like the Hubble; Earth observation satellites from companies like Planet Labs, Umbra, and HawkEye 360; GPS; miniature CubeSats for education and research; and military/defense satellites.

Loading next visibility...
Identifier
59452, 2024-066L
Orbit
LEO
Last TLE update
9 hours ago
Origin
Manufacturer
KAI
Mission
Operational spacecraft
Bus & Motor
CAS500?, Unknown motor
Mass
~800 kg wet, ~750 kg dry
Launch date (UTC)
2024-04-07 (1 year ago)
Launch vehicle
FALCON 9
Launch site
Air Force Eastern Test Range (AFETR)
Object type
Payload
Rocket body
Debris
Shape & HBR
Unknown
Radar Cross Section
Large (>1 m²)

Expand to show TLE details & history

TLE from 9 hours ago
0 KORSAT-1
1 59452U 24066L   25184.19276758  .00002520  00000-0  22530-3 0  9992
2 59452  45.4104 253.7778 0006467 296.8060  63.2156 14.98678312 67698
Epoch: 2025-07-03T04:37Z
TLE epoch observation values (Epoch: 2025-07-03T04:37:35.118Z)
Latitude
-0.00007°
Longitude
-97.08163°
Altitude
569 km
Speed
7.579 km/s
True Right ascension
16h 55m 06s
True Declination
0° 00' 00"
Sunlit
Object was in full shadow at epoch
Visualization orbit readout
Latitude
-24.4268°
Longitude
107.42456°
Altitude
576.687 km
Speed
7.573 km/s
Apparent Right ascension
09h 21m 27s
Apparent Declination
-44° 07' 30"
Sunlit
Object is in daylight
Visualization observer readout
Local Sidereal Time
01:21:46
Azimuth
116.061° SE
Elevation
-46.165°
Doppler factor
1
Orbital elements
Apogee altitude
576.995 km
Perigee altitude
568.005 km
Semi-major axis
6,950.637 km
Eccentricity
0.00065
Inclination
45.4104°
RAAN
253.7778°
Arg. of periapsis
296.806°
True anomaly
Unknown
Mean anomaly
63.2156°
Eccentric anomaly
Unknown
Mean motion
3.74547 °/min
Orbital period
96.12 mins
BSTAR
0.0002253
Loading maneuver chart data...
Loading SW <> Apogee altitude chart data...
Loading historical data...
Loading historical data...
Loading historical data...
Loading historical data...
Loading historical data...
Loading historical data...
Loading historical data...

KORSAT-1 Visibility forecast

Observer location: undefined°, undefined°

Span
Click to sort rows by Start time (UTC) header in descending order
Start Az.
Max El. time (UTC)
Max El. Az.
Max El.
End time (UTC)
End Az.
6 mins2025-07-03 14:44:55.752Z273.076° WNW2025-07-03 14:47:55.752Z227.85° WSW22.346°2025-07-03 14:50:55.752Z172.431° S
7 mins2025-07-04 08:02:55.752Z233.512° WSW2025-07-04 08:05:55.752Z119.95° SE43.3°2025-07-04 08:09:55.752Z67.899° E
6 mins2025-07-04 09:43:55.752Z285.495° WNW2025-07-04 09:46:55.752Z2.927° NNE34.329°2025-07-04 09:49:55.752Z59.053° ENE
7 mins2025-07-04 11:24:55.752Z302.99° NW2025-07-04 11:27:55.752Z10.206° NNE34.416°2025-07-04 11:31:55.752Z81.84° E
7 mins2025-07-04 13:05:55.752Z290.885° WNW2025-07-04 13:08:55.752Z197.96° SSW44.168°2025-07-04 13:12:55.752Z122.484° SE
|